| time (UTC) | temp F | wind direction | speed knots | gust knots | rain 1hr in | rain 24hr in | rain mn in | humidity % | barometer mb |
| 20260507105537 | 54 | 0 | 0.0 | 1.7 | 0.00 | 0.00 | 0.00 | 70 | 1020.4 |
| 20260507105037 | 54 | 0 | 0.0 | 3.5 | 0.00 | 0.00 | 0.00 | 69 | 1020.4 |
| 20260507104543 | 54 | 0 | 0.0 | 3.5 | 0.00 | 0.00 | 0.00 | 69 | 1020.6 |
| 20260507104036 | 54 | 0 | 0.0 | 3.5 | 0.00 | 0.00 | 0.00 | 69 | 1020.5 |
| 20260507103537 | 54 | 284 | 0.0 | 3.5 | 0.00 | 0.00 | 0.00 | 70 | 1020.5 |
| 20260507103047 | 54 | 290 | 0.9 | 3.5 | 0.00 | 0.00 | 0.00 | 70 | 1020.5 |
| 20260507102538 | 54 | 260 | 0.9 | 3.5 | 0.00 | 0.00 | 0.00 | 69 | 1020.6 |
| 20260507102038 | 54 | 294 | 0.0 | 3.5 | 0.00 | 0.00 | 0.00 | 70 | 1020.6 |
| 20260507101549 | 54 | 0 | 0.0 | 2.6 | 0.00 | 0.00 | 0.00 | 70 | 1020.6 |
| 20260507101041 | 54 | 0 | 0.0 | 1.7 | 0.00 | 0.00 | 0.00 | 70 | 1020.6 |
| 20260507100537 | 54 | 284 | 0.0 | 1.7 | 0.00 | 0.00 | 0.00 | 70 | 1020.7 |
| 20260507100045 | 54 | 0 | 0.0 | 1.7 | 0.00 | 0.00 | 0.00 | 70 | 1020.8 |
| 20260507095538 | 54 | 0 | 0.0 | 1.7 | 0.00 | 0.00 | 0.00 | 70 | 1020.8 |
| 20260507095037 | 54 | 0 | 0.0 | 3.5 | 0.00 | 0.00 | 0.00 | 70 | 1020.8 |
| 20260507094546 | 54 | 326 | 0.0 | 3.5 | 0.00 | 0.00 | 0.00 | 70 | 1020.8 |
| 20260507094037 | 54 | 332 | 0.0 | 2.6 | 0.00 | 0.00 | 0.00 | 70 | 1020.8 |
| 20260507093538 | 54 | 0 | 0.0 | 2.6 | 0.00 | 0.00 | 0.00 | 70 | 1020.8 |
| 20260507093050 | 54 | 42 | 0.0 | 2.6 | 0.00 | 0.00 | 0.00 | 69 | 1020.9 |
| 20260507092539 | 55 | 0 | 0.0 | 1.7 | 0.00 | 0.00 | 0.00 | 70 | 1020.9 |
| 20260507092041 | 55 | 0 | 0.0 | 1.7 | 0.00 | 0.00 | 0.00 | 70 | 1020.9 |
| 20260507091549 | 55 | 0 | 0.0 | 2.6 | 0.00 | 0.00 | 0.00 | 70 | 1021.1 |
| 20260507091038 | 55 | 0 | 0.0 | 2.6 | 0.00 | 0.00 | 0.00 | 70 | 1021.1 |
| 20260507090538 | 55 | 0 | 0.0 | 2.6 | 0.00 | 0.00 | 0.00 | 70 | 1021.1 |
| 20260507090050 | 55 | 0 | 0.0 | 5.2 | 0.00 | 0.00 | 0.00 | 70 | 1021.2 |
| 20260507085540 | 55 | 256 | 0.9 | 5.2 | 0.00 | 0.00 | 0.00 | 70 | 1021.2 |
| 20260507085038 | 55 | 290 | 0.9 | 3.5 | 0.00 | 0.00 | 0.00 | 70 | 1021.1 |
| 20260507084553 | 55 | 284 | 0.0 | 5.2 | 0.00 | 0.00 | 0.00 | 71 | 1021.1 |
| 20260507084038 | 55 | 0 | 0.0 | 5.2 | 0.00 | 0.00 | 0.00 | 71 | 1021.0 |
| 20260507083537 | 55 | 268 | 0.9 | 4.3 | 0.00 | 0.00 | 0.00 | 71 | 1021.0 |
| 20260507083053 | 55 | 239 | 0.9 | 3.5 | 0.00 | 0.00 | 0.00 | 71 | 1021.0 |
| 20260507082543 | 55 | 232 | 1.7 | 6.1 | 0.00 | 0.00 | 0.00 | 71 | 1021.0 |
| 20260507082042 | 55 | 248 | 0.9 | 6.1 | 0.00 | 0.00 | 0.00 | 72 | 1021.0 |
| 20260507081548 | 55 | 291 | 0.0 | 2.6 | 0.00 | 0.00 | 0.00 | 72 | 1021.0 |
| 20260507081041 | 55 | 271 | 0.0 | 3.5 | 0.00 | 0.00 | 0.00 | 72 | 1021.0 |
| 20260507080538 | 55 | 290 | 0.9 | 3.5 | 0.00 | 0.00 | 0.00 | 73 | 1021.1 |
| 20260507080113 | 55 | 286 | 1.7 | 3.5 | 0.00 | 0.00 | 0.00 | 74 | 1021.0 |
| 20260507075538 | 55 | 226 | 0.0 | 1.7 | 0.00 | 0.00 | 0.00 | 75 | 1021.0 |
| 20260507075038 | 55 | 213 | 0.0 | 2.6 | 0.00 | 0.00 | 0.00 | 75 | 1021.1 |
| 20260507074557 | 55 | 262 | 0.9 | 3.5 | 0.00 | 0.00 | 0.00 | 75 | 1021.1 |
| 20260507074037 | 55 | 0 | 1.7 | 4.3 | 0.00 | 0.00 | 0.00 | 75 | 1021.1 |
| 20260507073539 | 56 | 9 | 0.9 | 4.3 | 0.00 | 0.00 | 0.00 | 75 | 1021.0 |
| 20260507073050 | 56 | 5 | 1.7 | 3.5 | 0.00 | 0.00 | 0.00 | 75 | 1021.0 |
| 20260507072538 | 56 | 317 | 0.0 | 3.5 | 0.00 | 0.00 | 0.00 | 75 | 1021.0 |
| 20260507072042 | 56 | 0 | 0.9 | 3.5 | 0.00 | 0.00 | 0.00 | 75 | 1020.9 |
| 20260507071558 | 56 | 328 | 1.7 | 3.5 | 0.00 | 0.00 | 0.00 | 76 | 1021.0 |
| 20260507071037 | 56 | 335 | 0.9 | 3.5 | 0.00 | 0.00 | 0.00 | 76 | 1020.9 |
| 20260507070538 | 56 | 327 | 0.9 | 3.5 | 0.00 | 0.00 | 0.00 | 76 | 1020.9 |
| 20260507070042 | 56 | 5 | 0.9 | 3.5 | 0.00 | 0.00 | 0.00 | 77 | 1020.9 |
| 20260507065538 | 56 | 5 | 0.9 | 3.5 | 0.00 | 0.00 | 0.00 | 77 | 1020.9 |
| 20260507065038 | 56 | 13 | 0.0 | 2.6 | 0.00 | 0.00 | 0.00 | 77 | 1020.9 |
| 20260507064554 | 56 | 0 | 0.9 | 4.3 | 0.00 | 0.00 | 0.00 | 76 | 1020.9 |
| 20260507064037 | 56 | 17 | 1.7 | 4.3 | 0.00 | 0.00 | 0.00 | 76 | 1020.9 |
| 20260507063537 | 56 | 27 | 1.7 | 3.5 | 0.00 | 0.00 | 0.00 | 76 | 1020.9 |
| 20260507063043 | 56 | 23 | 0.9 | 5.2 | 0.00 | 0.00 | 0.00 | 76 | 1020.9 |
| 20260507062537 | 56 | 16 | 1.7 | 5.2 | 0.00 | 0.00 | 0.00 | 76 | 1020.9 |
| 20260507062038 | 56 | 18 | 1.7 | 5.2 | 0.00 | 0.00 | 0.00 | 76 | 1020.9 |
| 20260507061545 | 57 | 338 | 0.9 | 5.2 | 0.00 | 0.00 | 0.00 | 76 | 1021.0 |
| 20260507061038 | 57 | 352 | 1.7 | 5.2 | 0.00 | 0.00 | 0.00 | 75 | 1020.9 |
| 20260507060537 | 57 | 17 | 0.0 | 3.5 | 0.00 | 0.00 | 0.00 | 75 | 1020.9 |
| 20260507060044 | 57 | 9 | 1.7 | 3.5 | 0.00 | 0.00 | 0.00 | 76 | 1021.0 |
| 20260507055540 | 57 | 13 | 0.9 | 2.6 | 0.00 | 0.00 | 0.00 | 75 | 1020.9 |
| 20260507055037 | 57 | 0 | 0.0 | 1.7 | 0.00 | 0.00 | 0.00 | 75 | 1020.9 |
| 20260507054550 | 57 | 0 | 0.0 | 2.6 | 0.00 | 0.00 | 0.00 | 74 | 1020.8 |
| 20260507054037 | 57 | 352 | 0.0 | 2.6 | 0.00 | 0.00 | 0.00 | 74 | 1020.9 |
| 20260507053538 | 57 | 11 | 0.9 | 2.6 | 0.00 | 0.00 | 0.00 | 74 | 1020.9 |
| 20260507053046 | 58 | 0 | 0.9 | 4.3 | 0.00 | 0.00 | 0.00 | 74 | 1020.9 |
| 20260507052536 | 58 | 22 | 1.7 | 4.3 | 0.00 | 0.00 | 0.00 | 73 | 1020.7 |
| 20260507052039 | 58 | 19 | 0.9 | 4.3 | 0.00 | 0.00 | 0.00 | 73 | 1020.8 |
| 20260507051545 | 58 | 10 | 1.7 | 4.3 | 0.00 | 0.00 | 0.00 | 73 | 1020.8 |
| 20260507051038 | 58 | 13 | 0.9 | 4.3 | 0.00 | 0.00 | 0.00 | 73 | 1020.9 |
| 20260507050537 | 58 | 34 | 1.7 | 4.3 | 0.00 | 0.00 | 0.00 | 73 | 1020.8 |
| 20260507050045 | 58 | 5 | 1.7 | 7.0 | 0.00 | 0.00 | 0.00 | 72 | 1020.8 |
| 20260507045538 | 58 | 36 | 1.7 | 8.7 | 0.00 | 0.00 | 0.00 | 73 | 1020.8 |
| 20260507045038 | 58 | 42 | 2.6 | 8.7 | 0.00 | 0.00 | 0.00 | 72 | 1020.9 |
| 20260507044550 | 59 | 327 | 3.5 | 8.7 | 0.00 | 0.00 | 0.00 | 72 | 1020.8 |
| 20260507044042 | 59 | 352 | 1.7 | 7.0 | 0.00 | 0.00 | 0.00 | 72 | 1020.8 |
| 20260507043537 | 59 | 352 | 1.7 | 7.0 | 0.00 | 0.00 | 0.00 | 72 | 1020.8 |
| 20260507043048 | 59 | 15 | 1.7 | 7.0 | 0.00 | 0.00 | 0.00 | 72 | 1020.8 |
| 20260507042538 | 59 | 352 | 3.5 | 7.0 | 0.00 | 0.00 | 0.00 | 71 | 1020.7 |
| 20260507042037 | 59 | 9 | 2.6 | 10.4 | 0.00 | 0.00 | 0.00 | 71 | 1020.6 |
| 20260507041558 | 60 | 5 | 2.6 | 10.4 | 0.00 | 0.00 | 0.00 | 71 | 1020.6 |
| 20260507041039 | 60 | 11 | 3.5 | 7.0 | 0.00 | 0.00 | 0.00 | 71 | 1020.6 |
| 20260507040538 | 60 | 309 | 1.7 | 5.2 | 0.00 | 0.00 | 0.00 | 71 | 1020.5 |
| 20260507040058 | 60 | 335 | 0.9 | 8.7 | 0.00 | 0.00 | 0.00 | 71 | 1020.4 |
| 20260507035539 | 60 | 11 | 2.6 | 9.6 | 0.00 | 0.00 | 0.00 | 70 | 1020.4 |
| 20260507035038 | 60 | 310 | 4.3 | 9.6 | 0.00 | 0.00 | 0.00 | 70 | 1020.3 |
| 20260507034553 | 61 | 347 | 2.6 | 7.0 | 0.00 | 0.00 | 0.00 | 70 | 1020.2 |
| 20260507034038 | 61 | 309 | 1.7 | 7.8 | 0.00 | 0.00 | 0.00 | 70 | 1020.1 |
| 20260507033538 | 61 | 0 | 2.6 | 9.6 | 0.00 | 0.00 | 0.00 | 70 | 1020.1 |
| 20260507033045 | 61 | 352 | 4.3 | 9.6 | 0.00 | 0.00 | 0.00 | 70 | 1020.0 |
| 20260507032542 | 62 | 27 | 3.5 | 7.8 | 0.00 | 0.00 | 0.00 | 70 | 1019.9 |
| 20260507032037 | 62 | 14 | 3.5 | 7.0 | 0.00 | 0.00 | 0.00 | 69 | 1019.9 |
| 20260507031544 | 62 | 15 | 2.6 | 7.0 | 0.00 | 0.00 | 0.00 | 69 | 1019.8 |
| 20260507031037 | 62 | 321 | 1.7 | 6.1 | 0.00 | 0.00 | 0.00 | 69 | 1019.8 |
| 20260507030538 | 63 | 29 | 0.9 | 4.3 | 0.00 | 0.00 | 0.00 | 69 | 1019.7 |
| 20260507030053 | 63 | 15 | 0.9 | 4.3 | 0.00 | 0.00 | 0.00 | 69 | 1019.7 |
| 20260507025538 | 63 | 9 | 1.7 | 4.3 | 0.00 | 0.00 | 0.00 | 68 | 1019.7 |
| 20260507025037 | 63 | 46 | 0.9 | 4.3 | 0.00 | 0.00 | 0.00 | 68 | 1019.6 |
| 20260507024545 | 63 | 27 | 0.9 | 4.3 | 0.00 | 0.00 | 0.00 | 68 | 1019.6 |
| 20260507024040 | 64 | 51 | 0.9 | 4.3 | 0.00 | 0.00 | 0.00 | 68 | 1019.5 |
| 20260507023538 | 64 | 9 | 1.7 | 4.3 | 0.00 | 0.00 | 0.00 | 68 | 1019.4 |
| 20260507023047 | 64 | 10 | 1.7 | 4.3 | 0.00 | 0.00 | 0.00 | 67 | 1019.4 |
| 20260507022539 | 64 | 38 | 0.9 | 3.5 | 0.00 | 0.00 | 0.00 | 68 | 1019.4 |
| 20260507022038 | 64 | 35 | 1.7 | 3.5 | 0.00 | 0.00 | 0.00 | 67 | 1019.5 |
| 20260507021548 | 64 | 0 | 0.9 | 7.0 | 0.00 | 0.00 | 0.00 | 67 | 1019.4 |
| 20260507021038 | 64 | 13 | 2.6 | 7.0 | 0.00 | 0.00 | 0.00 | 66 | 1019.4 |
| 20260507020539 | 64 | 19 | 2.6 | 7.8 | 0.00 | 0.00 | 0.00 | 66 | 1019.4 |
| 20260507020053 | 65 | 43 | 2.6 | 7.8 | 0.00 | 0.00 | 0.00 | 65 | 1019.4 |
| 20260507015537 | 65 | 350 | 2.6 | 8.7 | 0.00 | 0.00 | 0.00 | 65 | 1019.4 |
| 20260507015037 | 66 | 331 | 4.3 | 10.4 | 0.00 | 0.00 | 0.00 | 64 | 1019.5 |
| 20260507014600 | 66 | 352 | 5.2 | 10.4 | 0.00 | 0.00 | 0.00 | 63 | 1019.5 |
| 20260507014038 | 67 | 329 | 4.3 | 9.6 | 0.00 | 0.00 | 0.00 | 63 | 1019.5 |
| 20260507013540 | 67 | 328 | 3.5 | 9.6 | 0.00 | 0.00 | 0.00 | 63 | 1019.5 |
| 20260507013048 | 67 | 19 | 4.3 | 9.6 | 0.00 | 0.00 | 0.00 | 63 | 1019.4 |
| 20260507012538 | 67 | 346 | 3.5 | 9.6 | 0.00 | 0.00 | 0.00 | 62 | 1019.4 |
| 20260507012038 | 68 | 325 | 4.3 | 9.6 | 0.00 | 0.00 | 0.00 | 62 | 1019.3 |
| 20260507011557 | 68 | 336 | 5.2 | 8.7 | 0.00 | 0.00 | 0.00 | 62 | 1019.3 |
| 20260507011037 | 68 | 13 | 2.6 | 7.8 | 0.00 | 0.00 | 0.00 | 63 | 1019.2 |
| 20260507010537 | 68 | 19 | 4.3 | 8.7 | 0.00 | 0.00 | 0.00 | 63 | 1019.3 |
| 20260507010049 | 69 | 339 | 4.3 | 8.7 | 0.00 | 0.00 | 0.00 | 62 | 1019.2 |
| 20260507005538 | 69 | 35 | 2.6 | 7.8 | 0.00 | 0.00 | 0.00 | 63 | 1019.3 |
| 20260507005041 | 69 | 339 | 4.3 | 7.8 | 0.00 | 0.00 | 0.00 | 62 | 1019.3 |
| 20260507004550 | 69 | 351 | 4.3 | 8.7 | 0.00 | 0.00 | 0.00 | 61 | 1019.3 |
| 20260507004038 | 70 | 5 | 4.3 | 10.4 | 0.00 | 0.00 | 0.00 | 61 | 1019.3 |
| 20260507003542 | 71 | 16 | 3.5 | 10.4 | 0.00 | 0.00 | 0.00 | 60 | 1019.4 |
| 20260507003050 | 71 | 360 | 3.5 | 7.0 | 0.00 | 0.00 | 0.00 | 57 | 1019.1 |
| 20260507002538 | 72 | 336 | 3.5 | 7.0 | 0.00 | 0.00 | 0.00 | 56 | 1019.1 |
| 20260507002038 | 73 | 5 | 1.7 | 7.0 | 0.00 | 0.00 | 0.00 | 55 | 1019.1 |
| 20260507001605 | 73 | 5 | 1.7 | 7.0 | 0.00 | 0.00 | 0.00 | 54 | 1019.1 |
| 20260507001037 | 75 | 32 | 3.5 | 7.0 | 0.00 | 0.00 | 0.00 | 52 | 1019.1 |
| 20260507000544 | 76 | 9 | 1.7 | 6.1 | 0.00 | 0.00 | 0.00 | 51 | 1019.1 |
| 20260507000057 | 77 | 185 | 0.9 | 6.1 | 0.00 | 0.00 | 0.00 | 51 | 1018.9 |
| 20260506235540 | 77 | 234 | 0.9 | 5.2 | 0.00 | 0.00 | 0.00 | 51 | 1019.0 |
| 20260506235038 | 77 | 300 | 0.9 | 6.1 | 0.00 | 0.00 | 0.00 | 49 | 1019.0 |
| 20260506234548 | 77 | 274 | 1.7 | 6.1 | 0.00 | 0.00 | 0.00 | 49 | 1019.0 |
| 20260506234037 | 77 | 241 | 1.7 | 6.1 | 0.00 | 0.00 | 0.00 | 51 | 1019.1 |
| 20260506233538 | 77 | 257 | 2.6 | 6.1 | 0.00 | 0.00 | 0.00 | 49 | 1019.1 |
| 20260506233044 | 77 | 193 | 2.6 | 7.0 | 0.00 | 0.00 | 0.00 | 50 | 1019.1 |
| 20260506232537 | 77 | 190 | 2.6 | 7.0 | 0.00 | 0.00 | 0.00 | 49 | 1019.1 |
| 20260506232038 | 77 | 189 | 0.9 | 7.8 | 0.00 | 0.00 | 0.00 | 51 | 1019.1 |
| 20260506231544 | 77 | 262 | 1.7 | 7.8 | 0.00 | 0.00 | 0.00 | 50 | 1019.3 |
| 20260506231038 | 77 | 0 | 0.9 | 5.2 | 0.00 | 0.00 | 0.00 | 52 | 1019.2 |
| 20260506230541 | 77 | 211 | 1.7 | 6.1 | 0.00 | 0.00 | 0.00 | 51 | 1019.3 |
| 20260506230048 | 77 | 179 | 2.6 | 7.8 | 0.00 | 0.00 | 0.00 | 50 | 1019.4 |
| 20260506225540 | 77 | 119 | 2.6 | 7.8 | 0.00 | 0.00 | 0.00 | 51 | 1019.4 |
| 20260506225040 | 76 | 258 | 1.7 | 5.2 | 0.00 | 0.00 | 0.00 | 52 | 1019.4 |
| 20260506224549 | 76 | 216 | 0.9 | 5.2 | 0.00 | 0.00 | 0.00 | 54 | 1019.5 |
| 20260506224037 | 75 | 169 | 1.7 | 8.7 | 0.00 | 0.00 | 0.00 | 54 | 1019.5 |
| 20260506223538 | 75 | 154 | 3.5 | 8.7 | 0.00 | 0.00 | 0.00 | 53 | 1019.6 |
| 20260506223050 | 75 | 192 | 2.6 | 7.0 | 0.00 | 0.00 | 0.00 | 55 | 1019.7 |
| 20260506222537 | 74 | 148 | 0.9 | 7.8 | 0.00 | 0.00 | 0.00 | 55 | 1019.7 |
| 20260506222037 | 74 | 167 | 2.6 | 7.8 | 0.00 | 0.00 | 0.00 | 54 | 1019.7 |
| 20260506221549 | 73 | 148 | 2.6 | 7.8 | 0.00 | 0.00 | 0.00 | 56 | 1019.8 |
| 20260506221038 | 73 | 184 | 2.6 | 7.0 | 0.00 | 0.00 | 0.00 | 56 | 1019.8 |
| 20260506220538 | 72 | 148 | 1.7 | 7.0 | 0.00 | 0.00 | 0.00 | 56 | 1019.8 |
| 20260506220058 | 72 | 150 | 2.6 | 7.8 | 0.00 | 0.00 | 0.00 | 56 | 1019.8 |
| 20260506215538 | 73 | 153 | 3.5 | 8.7 | 0.00 | 0.00 | 0.00 | 56 | 1019.8 |
| 20260506215041 | 73 | 128 | 1.7 | 8.7 | 0.00 | 0.00 | 0.00 | 56 | 1019.7 |
| 20260506214547 | 73 | 199 | 3.5 | 8.7 | 0.00 | 0.00 | 0.00 | 56 | 1019.7 |
| 20260506214039 | 73 | 78 | 0.9 | 7.0 | 0.00 | 0.00 | 0.00 | 57 | 1019.7 |
| 20260506213538 | 73 | 192 | 2.6 | 7.0 | 0.00 | 0.00 | 0.00 | 56 | 1019.8 |
| 20260506213052 | 72 | 185 | 0.9 | 7.8 | 0.00 | 0.00 | 0.00 | 58 | 1019.8 |
| 20260506212537 | 72 | 82 | 2.6 | 7.8 | 0.00 | 0.00 | 0.00 | 58 | 1019.9 |
| 20260506212037 | 72 | 169 | 0.9 | 3.5 | 0.00 | 0.00 | 0.00 | 59 | 1020.0 |
| 20260506211551 | 71 | 217 | 0.9 | 4.3 | 0.00 | 0.00 | 0.00 | 60 | 1020.0 |
| 20260506211037 | 71 | 257 | 1.7 | 7.0 | 0.00 | 0.00 | 0.00 | 62 | 1020.0 |
| 20260506210540 | 70 | 270 | 0.9 | 7.8 | 0.00 | 0.00 | 0.00 | 60 | 1020.2 |
| 20260506210100 | 70 | 278 | 3.5 | 7.8 | 0.00 | 0.00 | 0.00 | 60 | 1020.2 |
| 20260506205539 | 70 | 244 | 1.7 | 6.1 | 0.00 | 0.00 | 0.00 | 62 | 1020.2 |
| 20260506205041 | 69 | 140 | 1.7 | 7.0 | 0.00 | 0.00 | 0.00 | 63 | 1020.2 |
| 20260506204554 | 69 | 0 | 0.9 | 7.0 | 0.00 | 0.00 | 0.00 | 63 | 1020.1 |
| 20260506204037 | 69 | 136 | 1.7 | 6.1 | 0.00 | 0.00 | 0.00 | 63 | 1020.1 |
| 20260506203540 | 69 | 224 | 2.6 | 6.1 | 0.00 | 0.00 | 0.00 | 64 | 1020.1 |
| 20260506203128 | 68 | 0 | 0.9 | 7.8 | 0.00 | 0.00 | 0.00 | 65 | 1019.9 |
| 20260506202538 | 68 | 87 | 2.6 | 7.8 | 0.00 | 0.00 | 0.00 | 65 | 1020.0 |
| 20260506202041 | 68 | 202 | 1.7 | 6.1 | 0.00 | 0.00 | 0.00 | 66 | 1020.0 |
| 20260506201547 | 68 | 133 | 0.9 | 7.0 | 0.00 | 0.00 | 0.00 | 66 | 1020.1 |
| 20260506201037 | 67 | 79 | 3.5 | 7.0 | 0.00 | 0.00 | 0.00 | 67 | 1020.2 |
| 20260506200537 | 66 | 0 | 0.9 | 6.1 | 0.00 | 0.00 | 0.00 | 69 | 1020.2 |
| 20260506200051 | 66 | 142 | 2.6 | 6.1 | 0.00 | 0.00 | 0.00 | 68 | 1020.2 |
| 20260506195538 | 66 | 148 | 1.7 | 3.5 | 0.00 | 0.00 | 0.00 | 69 | 1020.3 |
| 20260506195038 | 65 | 0 | 0.9 | 3.5 | 0.00 | 0.00 | 0.00 | 69 | 1020.4 |
| 20260506194543 | 65 | 198 | 0.9 | 3.5 | 0.00 | 0.00 | 0.00 | 70 | 1020.4 |
| 20260506194038 | 65 | 181 | 0.0 | 3.5 | 0.00 | 0.00 | 0.00 | 70 | 1020.6 |
| 20260506193537 | 65 | 186 | 0.0 | 4.3 | 0.00 | 0.00 | 0.00 | 69 | 1020.6 |
| 20260506193043 | 65 | 0 | 0.9 | 4.3 | 0.00 | 0.00 | 0.00 | 69 | 1020.6 |
| 20260506192537 | 65 | 321 | 1.7 | 4.3 | 0.00 | 0.00 | 0.00 | 69 | 1020.6 |
| 20260506192040 | 65 | 48 | 0.9 | 4.3 | 0.00 | 0.00 | 0.00 | 69 | 1020.6 |
| 20260506191545 | 65 | 283 | 0.0 | 5.2 | 0.00 | 0.00 | 0.00 | 70 | 1020.6 |
| 20260506191042 | 65 | 0 | 0.9 | 5.2 | 0.00 | 0.00 | 0.00 | 69 | 1020.6 |
| 20260506190538 | 65 | 274 | 0.9 | 5.2 | 0.00 | 0.00 | 0.00 | 70 | 1020.6 |
| 20260506190054 | 64 | 226 | 0.9 | 4.3 | 0.00 | 0.00 | 0.00 | 70 | 1020.6 |
| 20260506185537 | 64 | 121 | 0.0 | 3.5 | 0.00 | 0.00 | 0.00 | 70 | 1020.7 |
| 20260506185037 | 64 | 0 | 0.9 | 3.5 | 0.00 | 0.00 | 0.00 | 69 | 1020.7 |
| 20260506184556 | 64 | 178 | 0.9 | 4.3 | 0.00 | 0.00 | 0.00 | 70 | 1020.6 |
| 20260506184037 | 64 | 279 | 0.9 | 5.2 | 0.00 | 0.00 | 0.00 | 70 | 1020.5 |
| 20260506183538 | 64 | 207 | 1.7 | 5.2 | 0.00 | 0.00 | 0.00 | 70 | 1020.4 |
| 20260506183044 | 64 | 278 | 0.9 | 4.3 | 0.00 | 0.00 | 0.00 | 71 | 1020.5 |
| 20260506182538 | 64 | 244 | 1.7 | 4.3 | 0.00 | 0.00 | 0.00 | 70 | 1020.6 |
| 20260506182039 | 64 | 232 | 0.9 | 3.5 | 0.00 | 0.00 | 0.00 | 70 | 1020.7 |
| 20260506181543 | 64 | 167 | 0.9 | 5.2 | 0.00 | 0.00 | 0.00 | 71 | 1020.7 |
| 20260506181041 | 63 | 132 | 0.9 | 6.1 | 0.00 | 0.00 | 0.00 | 73 | 1020.7 |
| 20260506180538 | 63 | 184 | 2.6 | 6.1 | 0.00 | 0.00 | 0.00 | 73 | 1020.7 |
| 20260506180047 | 62 | 246 | 0.9 | 7.0 | 0.00 | 0.00 | 0.00 | 74 | 1020.6 |
| 20260506175538 | 62 | 260 | 1.7 | 7.0 | 0.00 | 0.00 | 0.00 | 73 | 1020.6 |
| 20260506175043 | 62 | 0 | 1.7 | 4.3 | 0.00 | 0.00 | 0.00 | 74 | 1020.6 |
| 20260506174604 | 61 | 237 | 0.0 | 4.3 | 0.00 | 0.00 | 0.00 | 75 | 1020.7 |
| 20260506174037 | 61 | 160 | 0.0 | 5.2 | 0.00 | 0.00 | 0.00 | 75 | 1020.7 |
| 20260506173539 | 61 | 246 | 0.9 | 6.1 | 0.00 | 0.00 | 0.00 | 75 | 1020.8 |
| 20260506173054 | 61 | 184 | 3.5 | 6.1 | 0.00 | 0.00 | 0.00 | 75 | 1020.6 |
| 20260506172537 | 60 | 150 | 1.7 | 6.1 | 0.00 | 0.00 | 0.00 | 74 | 1020.4 |
| 20260506172039 | 60 | 175 | 1.7 | 6.1 | 0.00 | 0.00 | 0.00 | 75 | 1020.3 |
| 20260506171544 | 60 | 183 | 2.6 | 6.1 | 0.00 | 0.00 | 0.00 | 76 | 1020.4 |
| 20260506171037 | 60 | 185 | 1.7 | 6.1 | 0.00 | 0.00 | 0.00 | 76 | 1020.5 |
| 20260506170539 | 60 | 165 | 2.6 | 6.1 | 0.00 | 0.00 | 0.00 | 76 | 1020.5 |
| 20260506170048 | 60 | 178 | 0.9 | 4.3 | 0.00 | 0.00 | 0.00 | 77 | 1020.5 |
| 20260506165538 | 60 | 173 | 0.0 | 2.6 | 0.00 | 0.00 | 0.00 | 78 | 1020.5 |
| 20260506165041 | 60 | 0 | 0.0 | 3.5 | 0.00 | 0.00 | 0.00 | 78 | 1020.6 |
| 20260506164549 | 60 | 0 | 0.0 | 3.5 | 0.00 | 0.00 | 0.00 | 79 | 1020.6 |
| 20260506164037 | 59 | 177 | 0.0 | 3.5 | 0.00 | 0.00 | 0.00 | 79 | 1020.5 |
| 20260506163538 | 59 | 240 | 0.0 | 5.2 | 0.00 | 0.00 | 0.00 | 78 | 1020.5 |
| 20260506163102 | 59 | 302 | 0.9 | 5.2 | 0.00 | 0.00 | 0.00 | 78 | 1020.5 |
| 20260506162537 | 59 | 224 | 0.9 | 5.2 | 0.00 | 0.00 | 0.00 | 79 | 1020.5 |
| 20260506162037 | 59 | 196 | 1.7 | 3.5 | 0.00 | 0.00 | 0.00 | 79 | 1020.4 |
| 20260506161549 | 59 | 273 | 0.0 | 3.5 | 0.00 | 0.00 | 0.00 | 80 | 1020.4 |
| 20260506161039 | 59 | 194 | 0.0 | 3.5 | 0.00 | 0.00 | 0.00 | 80 | 1020.4 |
| 20260506160538 | 58 | 232 | 0.0 | 4.3 | 0.00 | 0.00 | 0.00 | 80 | 1020.2 |
| 20260506160051 | 58 | 0 | 1.7 | 5.2 | 0.00 | 0.00 | 0.00 | 80 | 1020.3 |
| 20260506155537 | 58 | 220 | 1.7 | 5.2 | 0.00 | 0.00 | 0.00 | 80 | 1020.0 |
| 20260506155038 | 58 | 209 | 0.9 | 6.1 | 0.00 | 0.00 | 0.00 | 81 | 1020.1 |
| 20260506154553 | 58 | 163 | 1.7 | 7.8 | 0.00 | 0.00 | 0.00 | 81 | 1020.0 |
| 20260506154041 | 57 | 140 | 3.5 | 7.8 | 0.00 | 0.00 | 0.00 | 81 | 1019.6 |
| 20260506153538 | 57 | 127 | 2.6 | 5.2 | 0.00 | 0.00 | 0.00 | 81 | 1019.5 |
| 20260506153112 | 57 | 96 | 1.7 | 3.5 | 0.00 | 0.00 | 0.00 | 81 | 1019.9 |
| 20260506152537 | 57 | 130 | 0.9 | 1.7 | 0.00 | 0.00 | 0.00 | 81 | 1020.2 |
| 20260506152037 | 57 | 0 | 0.0 | 1.7 | 0.00 | 0.00 | 0.00 | 81 | 1020.4 |
| 20260506151550 | 57 | 0 | 0.9 | 1.7 | 0.00 | 0.00 | 0.00 | 81 | 1020.5 |
| 20260506151038 | 57 | 0 | 0.0 | 1.7 | 0.00 | 0.00 | 0.00 | 81 | 1020.6 |
| 20260506150537 | 57 | 0 | 0.0 | 2.6 | 0.00 | 0.00 | 0.00 | 81 | 1020.5 |
| 20260506150050 | 57 | 0 | 0.0 | 3.5 | 0.00 | 0.00 | 0.00 | 81 | 1020.5 |
| 20260506145537 | 57 | 158 | 0.9 | 3.5 | 0.00 | 0.00 | 0.00 | 81 | 1020.5 |
| 20260506145037 | 57 | 174 | 1.7 | 3.5 | 0.00 | 0.00 | 0.00 | 81 | 1020.5 |
| 20260506144547 | 57 | 0 | 0.0 | 3.5 | 0.00 | 0.00 | 0.00 | 81 | 1020.4 |
| 20260506144039 | 57 | 183 | 0.0 | 3.5 | 0.00 | 0.00 | 0.00 | 81 | 1020.2 |
| 20260506143538 | 57 | 0 | 0.0 | 2.6 | 0.00 | 0.00 | 0.00 | 81 | 1020.2 |
| 20260506143054 | 57 | 0 | 0.0 | 2.6 | 0.00 | 0.00 | 0.00 | 81 | 1020.2 |
| 20260506142538 | 57 | 0 | 0.9 | 3.5 | 0.00 | 0.00 | 0.00 | 81 | 1020.0 |
| 20260506142037 | 57 | 202 | 0.0 | 4.3 | 0.00 | 0.00 | 0.00 | 81 | 1019.8 |
| 20260506141551 | 57 | 173 | 1.7 | 4.3 | 0.00 | 0.00 | 0.00 | 81 | 1019.7 |
| 20260506141039 | 57 | 164 | 1.7 | 4.3 | 0.00 | 0.00 | 0.00 | 82 | 1019.5 |
| 20260506140542 | 57 | 166 | 0.0 | 5.2 | 0.00 | 0.00 | 0.00 | 83 | 1019.5 |
| 20260506140049 | 57 | 0 | 1.7 | 6.1 | 0.00 | 0.00 | 0.00 | 83 | 1019.5 |
| 20260506135538 | 57 | 65 | 1.7 | 6.1 | 0.00 | 0.00 | 0.00 | 83 | 1019.4 |
| 20260506135039 | 57 | 84 | 2.6 | 6.1 | 0.00 | 0.00 | 0.00 | 83 | 1019.4 |
| 20260506134549 | 57 | 85 | 0.9 | 3.5 | 0.00 | 0.00 | 0.00 | 83 | 1019.4 |
| 20260506134038 | 57 | 0 | 0.0 | 4.3 | 0.00 | 0.00 | 0.00 | 83 | 1019.2 |
| 20260506133538 | 57 | 0 | 0.0 | 4.3 | 0.00 | 0.00 | 0.00 | 83 | 1019.2 |
| 20260506133050 | 57 | 0 | 0.9 | 4.3 | 0.00 | 0.00 | 0.00 | 83 | 1019.1 |
| 20260506132541 | 57 | 0 | 0.0 | 1.7 | 0.00 | 0.00 | 0.00 | 83 | 1019.1 |
| 20260506132037 | 57 | 0 | 0.0 | 1.7 | 0.00 | 0.00 | 0.00 | 83 | 1019.1 |
| 20260506131551 | 57 | 0 | 0.0 | 2.6 | 0.00 | 0.00 | 0.00 | 83 | 1018.9 |
| 20260506131039 | 57 | 0 | 0.0 | 3.5 | 0.00 | 0.00 | 0.00 | 83 | 1018.8 |
| 20260506130538 | 57 | 95 | 0.0 | 3.5 | 0.00 | 0.00 | 0.00 | 83 | 1018.7 |
| 20260506130050 | 57 | 128 | 0.0 | 3.5 | 0.00 | 0.00 | 0.00 | 83 | 1018.8 |
| 20260506125537 | 57 | 0 | 0.0 | 2.6 | 0.00 | 0.00 | 0.00 | 83 | 1018.8 |
| 20260506125037 | 57 | 0 | 0.0 | 2.6 | 0.00 | 0.00 | 0.00 | 83 | 1018.7 |
| 20260506124545 | 57 | 0 | 0.0 | 1.7 | 0.00 | 0.00 | 0.00 | 83 | 1018.8 |
| 20260506124037 | 57 | 146 | 0.0 | 0.9 | 0.00 | 0.00 | 0.00 | 83 | 1018.6 |
| 20260506123537 | 58 | 0 | 0.0 | 0.0 | 0.00 | 0.00 | 0.00 | 83 | 1018.6 |
| 20260506123052 | 58 | 0 | 0.0 | 0.0 | 0.00 | 0.00 | 0.00 | 83 | 1018.6 |
| 20260506122537 | 58 | 0 | 0.0 | 0.0 | 0.00 | 0.00 | 0.00 | 83 | 1018.7 |
| 20260506122037 | 58 | 0 | 0.0 | 0.0 | 0.00 | 0.00 | 0.00 | 83 | 1018.7 |
| 20260506121602 | 58 | 0 | 0.0 | 0.0 | 0.00 | 0.00 | 0.00 | 83 | 1018.7 |
| 20260506121037 | 58 | 0 | 0.0 | 1.7 | 0.00 | 0.00 | 0.00 | 83 | 1018.7 |
| 20260506120537 | 58 | 0 | 0.0 | 1.7 | 0.00 | 0.00 | 0.00 | 83 | 1018.7 |
| 20260506120051 | 58 | 0 | 0.0 | 1.7 | 0.00 | 0.00 | 0.00 | 83 | 1018.7 |
| 20260506115540 | 58 | 175 | 0.0 | 0.0 | 0.00 | 0.00 | 0.00 | 83 | 1018.7 |
| 20260506115038 | 58 | 0 | 0.0 | 1.7 | 0.00 | 0.00 | 0.00 | 82 | 1018.6 |
| 20260506114549 | 58 | 0 | 0.0 | 1.7 | 0.00 | 0.00 | 0.00 | 82 | 1018.5 |
| 20260506114037 | 58 | 0 | 0.0 | 1.7 | 0.00 | 0.00 | 0.00 | 81 | 1018.4 |
| 20260506113540 | 58 | 0 | 0.0 | 0.0 | 0.00 | 0.00 | 0.00 | 80 | 1018.4 |
| 20260506113048 | 58 | 0 | 0.0 | 0.0 | 0.00 | 0.00 | 0.00 | 80 | 1018.4 |
| 20260506112538 | 58 | 0 | 0.0 | 0.0 | 0.00 | 0.00 | 0.00 | 80 | 1018.4 |
| 20260506112039 | 58 | 0 | 0.0 | 0.9 | 0.00 | 0.00 | 0.00 | 80 | 1018.3 |
| 20260506111542 | 58 | 0 | 0.0 | 1.7 | 0.00 | 0.00 | 0.00 | 80 | 1018.3 |
| 20260506111037 | 58 | 0 | 0.0 | 1.7 | 0.00 | 0.00 | 0.00 | 80 | 1018.3 |
| 20260506110539 | 58 | 0 | 0.0 | 1.7 | 0.00 | 0.00 | 0.00 | 80 | 1018.2 |
| 20260506110048 | 58 | 135 | 0.0 | 2.6 | 0.00 | 0.00 | 0.00 | 80 | 1018.2 |